Time,TemperatureF,DewpointF,PressureIn,WindDirection,WindDirectionDegrees,WindSpeedMPH,WindSpeedGustMPH,Humidity,HourlyPrecipIn,Conditions,Clouds,dailyrainin,SolarRadiationWatts/m^2,SoftwareType,DateUTC
2013-11-23 00:00:00,41.5,37.4,29.97,NNE,22,6.9,6.9,85,0.00,,,0.00,0.0,WeatherDisplay:10.37,2013-11-22 23:00:00,
2013-11-23 00:05:00,41.5,37.4,29.97,North,0,11.5,11.5,85,0.00,,,0.00,0.0,WeatherDisplay:10.37,2013-11-22 23:05:00,
2013-11-23 00:10:00,41.5,37.4,29.94,NNW,338,13.8,13.8,85,0.00,,,0.00,0.0,WeatherDisplay:10.37,2013-11-22 23:10:00,
2013-11-23 00:15:00,41.5,37.4,29.94,North,4,8.0,13.0,85,0.00,,,0.00,0.0,WeatherDisplay:10.37,2013-11-22 23:15:00,
2013-11-23 00:20:00,41.5,37.4,29.94,North,0,13.2,13.2,85,0.00,,,0.00,0.0,WeatherDisplay:10.37,2013-11-22 23:20:00,
2013-11-23 00:25:00,41.5,37.4,29.94,North,0,8.1,8.1,85,0.00,,,0.00,0.0,WeatherDisplay:10.37,2013-11-22 23:25:00,
2013-11-23 00:30:00,41.5,37.4,29.94,North,4,7.0,13.0,85,0.00,,,0.00,0.0,WeatherDisplay:10.37,2013-11-22 23:30:00,
2013-11-23 00:35:00,41.4,37.2,29.94,North,5,5.0,13.0,85,0.00,,,0.00,0.0,WeatherDisplay:10.37,2013-11-22 23:35:00,
2013-11-23 00:40:00,41.4,37.2,29.97,North,0,15.0,15.0,85,0.00,,,0.00,0.0,WeatherDisplay:10.37,2013-11-22 23:40:00,
2013-11-23 00:45:00,41.4,37.2,29.97,NNE,21,7.0,15.0,85,0.00,,,0.00,0.0,WeatherDisplay:10.37,2013-11-22 23:45:00,
2013-11-23 00:50:00,41.2,37.0,29.97,NNE,22,9.2,9.2,85,0.00,,,0.00,0.0,WeatherDisplay:10.37,2013-11-22 23:50:00,
2013-11-23 00:55:00,41.2,37.0,29.97,ENE,68,11.5,11.5,85,0.00,,,0.00,0.0,WeatherDisplay:10.37,2013-11-22 23:55:00,
2013-11-23 01:00:00,41.2,37.0,29.97,NNE,19,7.0,12.0,85,0.00,,,0.00,0.0,WeatherDisplay:10.37,2013-11-23 00:00:00,
2013-11-23 01:05:00,41.2,37.0,29.97,North,0,8.1,8.1,85,0.00,,,0.00,0.0,WeatherDisplay:10.37,2013-11-23 00:05:00,
2013-11-23 01:10:00,41.2,37.0,29.97,NNW,338,10.2,10.2,85,0.00,,,0.00,0.0,WeatherDisplay:10.37,2013-11-23 00:10:00,
2013-11-23 01:15:00,41.2,37.0,29.97,NE,37,6.0,10.0,85,0.00,,,0.00,0.0,WeatherDisplay:10.37,2013-11-23 00:15:00,
2013-11-23 01:20:00,41.2,37.0,29.97,NE,45,8.1,8.1,85,0.00,,,0.00,0.0,WeatherDisplay:10.37,2013-11-23 00:20:00,
2013-11-23 01:25:00,41.2,37.0,30.00,NNE,28,5.0,12.0,85,0.00,,,0.00,0.0,WeatherDisplay:10.37,2013-11-23 00:25:00,
2013-11-23 01:30:00,41.2,37.3,30.00,NNW,338,4.0,4.0,86,0.00,,,0.00,0.0,WeatherDisplay:10.37,2013-11-23 00:30:00,
2013-11-23 01:35:00,41.2,37.3,30.00,NNW,338,5.8,5.8,86,0.00,,,0.00,0.0,WeatherDisplay:10.37,2013-11-23 00:35:00,
2013-11-23 01:40:00,41.2,37.3,29.97,North,8,6.0,8.0,86,0.00,,,0.00,0.0,WeatherDisplay:10.37,2013-11-23 00:40:00,
2013-11-23 01:45:00,41.2,37.3,29.97,NNW,338,7.4,7.4,86,0.00,,,0.00,0.0,WeatherDisplay:10.37,2013-11-23 00:45:00,
2013-11-23 01:50:00,41.4,37.5,29.97,NE,39,3.0,7.0,86,0.00,,,0.00,0.0,WeatherDisplay:10.37,2013-11-23 00:50:00,
2013-11-23 01:55:00,41.4,37.5,29.97,NE,48,5.0,7.0,86,0.00,,,0.00,0.0,WeatherDisplay:10.37,2013-11-23 00:55:00,
2013-11-23 02:00:00,41.4,37.5,29.97,North,0,8.5,8.5,86,0.00,,,0.00,0.0,WeatherDisplay:10.37,2013-11-23 01:00:00,
2013-11-23 02:05:00,41.4,37.5,29.97,NE,34,5.0,9.0,86,0.00,,,0.00,0.0,WeatherDisplay:10.37,2013-11-23 01:05:00,
2013-11-23 02:10:00,41.4,37.5,29.97,NNE,29,7.0,8.0,86,0.00,,,0.00,0.0,WeatherDisplay:10.37,2013-11-23 01:10:00,
2013-11-23 02:15:00,41.4,37.5,29.97,NE,34,5.0,8.0,86,0.00,,,0.00,0.0,WeatherDisplay:10.37,2013-11-23 01:15:00,
2013-11-23 02:20:00,41.4,37.5,29.97,NE,45,4.6,4.7,86,0.00,,,0.00,0.0,WeatherDisplay:10.37,2013-11-23 01:20:00,
2013-11-23 02:25:00,41.4,37.5,29.97,NNE,27,6.0,11.0,86,0.00,,,0.00,0.0,WeatherDisplay:10.37,2013-11-23 01:25:00,
2013-11-23 02:30:00,41.4,37.5,29.97,NE,45,6.9,6.9,86,0.00,,,0.00,0.0,WeatherDisplay:10.37,2013-11-23 01:30:00,
2013-11-23 02:35:00,41.4,37.8,29.97,NE,36,6.0,9.0,87,0.00,,,0.00,0.0,WeatherDisplay:10.37,2013-11-23 01:35:00,
2013-11-23 02:40:00,41.4,37.8,29.97,NNE,20,5.0,10.0,87,0.00,,,0.00,0.0,WeatherDisplay:10.37,2013-11-23 01:40:00,
2013-11-23 02:45:00,41.4,37.8,29.97,NNE,24,7.0,13.0,87,0.00,,,0.00,0.0,WeatherDisplay:10.37,2013-11-23 01:45:00,
2013-11-23 02:50:00,41.4,37.8,29.97,North,0,8.1,8.1,87,0.00,,,0.00,0.0,WeatherDisplay:10.37,2013-11-23 01:50:00,
2013-11-23 02:55:00,41.4,37.8,29.94,NNE,22,8.1,8.1,87,0.00,,,0.00,0.0,WeatherDisplay:10.37,2013-11-23 01:55:00,
2013-11-23 03:00:00,41.4,37.8,29.94,NNE,22,8.1,8.1,87,0.00,,,0.00,0.0,WeatherDisplay:10.37,2013-11-23 02:00:00,
2013-11-23 03:05:00,41.4,37.8,29.94,NNE,23,5.0,10.0,87,0.00,,,0.00,0.0,WeatherDisplay:10.37,2013-11-23 02:05:00,
2013-11-23 03:10:00,41.4,37.8,29.97,NE,45,5.8,6.2,87,0.00,,,0.00,0.0,WeatherDisplay:10.37,2013-11-23 02:10:00,
2013-11-23 03:15:00,41.4,37.8,29.97,NE,45,8.1,8.1,87,0.00,,,0.00,0.0,WeatherDisplay:10.37,2013-11-23 02:15:00,
2013-11-23 03:20:00,41.4,37.8,29.97,North,0,5.8,5.8,87,0.00,,,0.00,0.0,WeatherDisplay:10.37,2013-11-23 02:20:00,
2013-11-23 03:25:00,41.4,37.8,29.97,NNE,32,7.0,14.0,87,0.00,,,0.00,0.0,WeatherDisplay:10.37,2013-11-23 02:25:00,
2013-11-23 03:30:00,41.4,37.8,29.97,NE,45,8.1,8.1,87,0.00,,,0.00,0.0,WeatherDisplay:10.37,2013-11-23 02:30:00,
2013-11-23 03:35:00,41.4,37.8,29.97,NNE,29,7.0,13.0,87,0.00,,,0.00,0.0,WeatherDisplay:10.37,2013-11-23 02:35:00,
2013-11-23 03:40:00,41.4,37.8,29.97,NE,45,9.2,9.2,87,0.00,,,0.00,0.0,WeatherDisplay:10.37,2013-11-23 02:40:00,
2013-11-23 03:45:00,41.4,37.8,29.97,NNE,29,6.0,10.0,87,0.00,,,0.00,0.0,WeatherDisplay:10.37,2013-11-23 02:45:00,
2013-11-23 03:50:00,41.4,37.8,29.97,ENE,68,12.7,12.7,87,0.00,,,0.00,0.0,WeatherDisplay:10.37,2013-11-23 02:50:00,
2013-11-23 03:55:00,41.4,38.1,29.97,ENE,68,8.1,8.1,88,0.00,,,0.00,0.0,WeatherDisplay:10.37,2013-11-23 02:55:00,
2013-11-23 04:00:00,41.4,38.1,29.97,NE,45,6.9,6.9,88,0.00,,,0.00,0.0,WeatherDisplay:10.37,2013-11-23 03:00:00,
2013-11-23 04:05:00,41.4,38.1,29.97,NE,45,13.0,13.0,88,0.00,,,0.00,0.0,WeatherDisplay:10.37,2013-11-23 03:05:00,
2013-11-23 04:10:00,41.4,38.1,29.97,NE,45,8.1,8.1,88,0.00,,,0.00,0.0,WeatherDisplay:10.37,2013-11-23 03:10:00,
2013-11-23 04:15:00,41.4,38.1,29.97,NE,45,13.8,13.8,88,0.00,,,0.00,0.0,WeatherDisplay:10.37,2013-11-23 03:15:00,
2013-11-23 04:20:00,41.4,38.1,29.97,NE,45,6.9,6.9,88,0.00,,,0.00,0.0,WeatherDisplay:10.37,2013-11-23 03:20:00,
2013-11-23 04:25:00,41.4,38.1,29.97,NE,45,8.1,8.1,88,0.00,,,0.00,0.0,WeatherDisplay:10.37,2013-11-23 03:25:00,
2013-11-23 04:30:00,41.4,38.1,29.97,NNW,338,9.2,9.2,88,0.00,,,0.00,0.0,WeatherDisplay:10.37,2013-11-23 03:30:00,
2013-11-23 04:35:00,41.4,38.1,29.97,East,90,9.2,9.2,88,0.00,,,0.00,0.0,WeatherDisplay:10.37,2013-11-23 03:35:00,
2013-11-23 04:40:00,41.4,38.4,29.97,NE,45,11.5,11.5,89,0.00,,,0.00,0.0,WeatherDisplay:10.37,2013-11-23 03:40:00,
2013-11-23 04:45:00,41.2,38.2,29.97,NW,315,4.6,4.6,89,0.00,,,0.00,0.0,WeatherDisplay:10.37,2013-11-23 03:45:00,
2013-11-23 04:50:00,41.2,38.2,29.97,NNE,22,6.0,6.0,89,0.00,,,0.00,0.0,WeatherDisplay:10.37,2013-11-23 03:50:00,
2013-11-23 04:55:00,41.2,38.2,29.97,North,0,8.1,8.1,89,0.00,,,0.00,0.0,WeatherDisplay:10.37,2013-11-23 03:55:00,
2013-11-23 05:00:00,41.2,38.2,29.97,NNE,22,9.2,9.2,89,0.00,,,0.00,0.0,WeatherDisplay:10.37,2013-11-23 04:00:00,
2013-11-23 05:05:00,41.2,38.2,29.97,North,0,6.7,6.7,89,0.00,,,0.00,0.0,WeatherDisplay:10.37,2013-11-23 04:05:00,
2013-11-23 05:10:00,41.2,38.2,30.00,North,0,10.4,10.4,89,0.00,,,0.00,0.0,WeatherDisplay:10.37,2013-11-23 04:10:00,
2013-11-23 05:15:00,41.2,38.2,30.00,NNW,338,9.7,9.7,89,0.00,,,0.00,0.0,WeatherDisplay:10.37,2013-11-23 04:15:00,
2013-11-23 05:20:00,41.2,38.5,30.00,NE,45,10.4,10.4,90,0.00,,,0.00,0.0,WeatherDisplay:10.37,2013-11-23 04:20:00,
2013-11-23 05:25:00,41.4,38.6,30.00,WNW,292,8.1,8.1,90,0.00,,,0.00,0.0,WeatherDisplay:10.37,2013-11-23 04:25:00,
2013-11-23 05:30:00,41.4,38.6,30.00,NE,45,5.8,5.8,90,0.00,,,0.00,0.0,WeatherDisplay:10.37,2013-11-23 04:30:00,
2013-11-23 05:35:00,41.4,38.6,30.00,ENE,68,13.8,13.8,90,0.00,,,0.00,0.0,WeatherDisplay:10.37,2013-11-23 04:35:00,
2013-11-23 05:40:00,41.4,38.6,30.00,NNE,22,10.4,10.4,90,0.00,,,0.00,0.0,WeatherDisplay:10.37,2013-11-23 04:40:00,
2013-11-23 05:45:00,41.4,38.6,30.00,NE,45,12.7,12.7,90,0.00,,,0.00,0.0,WeatherDisplay:10.37,2013-11-23 04:45:00,
2013-11-23 05:50:00,41.4,38.6,30.00,NNE,22,5.8,5.8,90,0.00,,,0.00,0.0,WeatherDisplay:10.37,2013-11-23 04:50:00,
2013-11-23 05:55:00,41.4,38.6,30.00,NE,45,8.1,8.1,90,0.00,,,0.00,0.0,WeatherDisplay:10.37,2013-11-23 04:55:00,
2013-11-23 06:00:00,41.4,38.6,30.00,NNE,22,8.1,8.1,90,0.00,,,0.00,0.0,WeatherDisplay:10.37,2013-11-23 05:00:00,
2013-11-23 06:01:00,41.4,38.6,30.00,NNE,22,8.1,8.1,90,0.00,,,0.00,0.0,WeatherDisplay:10.37,2013-11-23 05:01:00,
2013-11-23 06:06:00,41.4,38.6,30.00,ENE,68,8.1,8.1,90,0.00,,,0.00,0.0,WeatherDisplay:10.37,2013-11-23 05:06:00,
2013-11-23 06:11:00,41.4,38.6,30.00,NNE,22,7.8,7.8,90,0.00,,,0.00,0.0,WeatherDisplay:10.37,2013-11-23 05:11:00,
2013-11-23 06:16:00,41.4,38.6,30.00,ENE,68,11.5,11.5,90,0.00,,,0.00,0.0,WeatherDisplay:10.37,2013-11-23 05:16:00,
2013-11-23 06:21:00,41.4,38.6,30.00,NNE,22,5.8,5.9,90,0.00,,,0.00,0.0,WeatherDisplay:10.37,2013-11-23 05:21:00,
2013-11-23 06:26:00,41.4,38.6,30.00,ENE,68,8.1,8.1,90,0.00,,,0.00,0.0,WeatherDisplay:10.37,2013-11-23 05:26:00,
2013-11-23 06:32:00,41.2,38.5,30.00,NE,45,12.7,12.7,90,0.00,,,0.00,0.0,WeatherDisplay:10.37,2013-11-23 05:32:00,
2013-11-23 06:37:00,41.4,38.6,30.00,NNE,22,9.4,9.4,90,0.00,,,0.00,0.0,WeatherDisplay:10.37,2013-11-23 05:37:00,
2013-11-23 06:42:00,41.2,38.2,30.00,NE,45,6.9,6.9,89,0.00,,,0.00,0.0,WeatherDisplay:10.37,2013-11-23 05:42:00,
2013-11-23 06:47:00,41.2,38.2,30.00,North,0,8.1,8.1,89,0.00,,,0.00,0.0,WeatherDisplay:10.37,2013-11-23 05:47:00,
2013-11-23 06:52:00,41.2,37.9,30.00,NE,45,10.4,10.4,88,0.00,,,0.00,0.0,WeatherDisplay:10.37,2013-11-23 05:52:00,
2013-11-23 06:57:00,41.2,37.9,30.00,North,0,11.5,11.5,88,0.00,,,0.00,0.0,WeatherDisplay:10.37,2013-11-23 05:57:00,
2013-11-23 07:02:00,41.2,37.6,30.00,NE,45,11.5,11.5,87,0.00,,,0.00,0.0,WeatherDisplay:10.37,2013-11-23 06:02:00,
2013-11-23 07:07:00,41.2,37.6,30.00,NNE,22,6.9,6.9,87,0.00,,,0.00,0.0,WeatherDisplay:10.37,2013-11-23 06:07:00,
2013-11-23 07:12:00,41.2,37.6,30.00,ENE,68,11.5,11.5,87,0.00,,,0.00,0.0,WeatherDisplay:10.37,2013-11-23 06:12:00,
2013-11-23 07:17:00,41.0,37.4,30.00,NE,45,12.8,12.8,87,0.00,,,0.00,0.0,WeatherDisplay:10.37,2013-11-23 06:17:00,
2013-11-23 07:22:00,41.0,37.1,30.00,NNE,22,12.7,12.7,86,0.00,,,0.00,0.0,WeatherDisplay:10.37,2013-11-23 06:22:00,
2013-11-23 07:27:00,41.0,37.4,30.00,NNE,22,9.2,9.2,87,0.00,,,0.00,0.0,WeatherDisplay:10.37,2013-11-23 06:27:00,
2013-11-23 07:32:00,41.0,37.1,30.00,NNE,22,12.7,12.7,86,0.00,,,0.00,0.0,WeatherDisplay:10.37,2013-11-23 06:32:00,
2013-11-23 07:37:00,41.0,37.1,30.00,NW,315,6.9,6.9,86,0.00,,,0.00,0.0,WeatherDisplay:10.37,2013-11-23 06:37:00,
2013-11-23 07:42:00,40.8,37.3,30.00,NNE,22,12.7,12.7,87,0.00,,,0.00,0.0,WeatherDisplay:10.37,2013-11-23 06:42:00,
2013-11-23 07:47:00,40.8,37.3,30.00,NW,315,17.3,17.3,87,0.00,,,0.00,0.0,WeatherDisplay:10.37,2013-11-23 06:47:00,
2013-11-23 07:52:00,40.6,36.8,30.00,NNE,22,12.7,12.7,86,0.00,,,0.00,0.0,WeatherDisplay:10.37,2013-11-23 06:52:00,
2013-11-23 07:57:00,40.6,37.1,30.03,NNE,22,9.2,9.2,87,0.00,,,0.00,0.0,WeatherDisplay:10.37,2013-11-23 06:57:00,
2013-11-23 08:02:00,40.6,37.1,30.03,NNE,22,9.2,9.2,87,0.00,,,0.00,0.0,WeatherDisplay:10.37,2013-11-23 07:02:00,
2013-11-23 08:07:00,40.6,37.1,30.03,North,0,11.5,11.5,87,0.00,,,0.00,0.0,WeatherDisplay:10.37,2013-11-23 07:07:00,
2013-11-23 08:12:00,40.6,37.1,30.03,NNE,22,10.4,10.4,87,0.00,,,0.00,0.0,WeatherDisplay:10.37,2013-11-23 07:12:00,
2013-11-23 08:17:00,40.6,37.1,30.03,NNE,22,12.7,12.7,87,0.00,,,0.00,0.0,WeatherDisplay:10.37,2013-11-23 07:17:00,
2013-11-23 08:22:00,40.6,37.1,30.03,NE,45,13.8,13.8,87,0.00,,,0.00,0.0,WeatherDisplay:10.37,2013-11-23 07:22:00,
2013-11-23 08:27:00,40.6,37.1,30.03,NE,45,13.8,13.8,87,0.00,,,0.00,0.0,WeatherDisplay:10.37,2013-11-23 07:27:00,
2013-11-23 08:32:00,40.6,37.1,30.03,NE,45,11.5,11.5,87,0.00,,,0.00,0.0,WeatherDisplay:10.37,2013-11-23 07:32:00,
2013-11-23 08:37:00,40.6,37.1,30.03,NNE,22,18.4,18.4,87,0.00,,,0.00,0.0,WeatherDisplay:10.37,2013-11-23 07:37:00,
2013-11-23 08:42:00,40.6,37.1,30.06,NE,45,18.4,18.4,87,0.00,,,0.00,0.0,WeatherDisplay:10.37,2013-11-23 07:42:00,
2013-11-23 08:47:00,40.6,37.1,30.06,NNE,22,12.7,12.7,87,0.00,,,0.00,0.0,WeatherDisplay:10.37,2013-11-23 07:47:00,
2013-11-23 08:52:00,40.5,36.9,30.06,North,0,13.8,13.8,87,0.00,,,0.00,0.0,WeatherDisplay:10.37,2013-11-23 07:52:00,
2013-11-23 08:57:00,40.5,36.9,30.03,WNW,292,10.4,10.4,87,0.00,,,0.00,0.0,WeatherDisplay:10.37,2013-11-23 07:57:00,
2013-11-23 09:02:00,40.3,36.7,30.03,NE,45,11.2,11.2,87,0.00,,,0.00,0.0,WeatherDisplay:10.37,2013-11-23 08:02:00,
2013-11-23 09:07:00,40.3,36.7,30.03,NNW,338,8.1,8.1,87,0.00,,,0.00,0.0,WeatherDisplay:10.37,2013-11-23 08:07:00,
2013-11-23 09:12:00,40.1,36.5,30.00,North,0,9.2,9.2,87,0.00,,,0.00,0.0,WeatherDisplay:10.37,2013-11-23 08:12:00,
2013-11-23 09:17:00,40.1,36.5,30.00,North,0,10.4,10.4,87,0.00,,,0.00,0.0,WeatherDisplay:10.37,2013-11-23 08:17:00,
2013-11-23 09:22:00,40.1,36.8,30.00,NE,45,11.5,11.5,88,0.00,,,0.00,0.0,WeatherDisplay:10.37,2013-11-23 08:22:00,
2013-11-23 09:27:00,40.1,36.8,30.03,North,0,5.8,5.8,88,0.00,,,0.00,0.0,WeatherDisplay:10.37,2013-11-23 08:27:00,
2013-11-23 09:32:00,40.1,36.8,30.03,NNE,22,13.8,13.8,88,0.00,,,0.00,0.0,WeatherDisplay:10.37,2013-11-23 08:32:00,
2013-11-23 09:37:00,40.1,36.8,30.03,NE,45,9.2,9.2,88,0.00,,,0.00,0.0,WeatherDisplay:10.37,2013-11-23 08:37:00,
2013-11-23 09:42:00,40.3,37.0,30.03,NNE,22,11.5,11.5,88,0.00,,,0.00,0.0,WeatherDisplay:10.37,2013-11-23 08:42:00,
2013-11-23 09:47:00,40.3,37.0,30.03,ENE,68,10.9,10.9,88,0.00,,,0.00,0.0,WeatherDisplay:10.37,2013-11-23 08:47:00,
2013-11-23 09:52:00,40.5,37.2,30.03,NE,45,8.1,8.1,88,0.00,,,0.00,0.0,WeatherDisplay:10.37,2013-11-23 08:52:00,
2013-11-23 09:57:00,40.5,37.2,30.03,NNE,22,12.7,12.7,88,0.00,,,0.00,0.0,WeatherDisplay:10.37,2013-11-23 08:57:00,
2013-11-23 10:02:00,40.5,37.2,30.03,ENE,68,15.0,15.0,88,0.00,,,0.00,0.0,WeatherDisplay:10.37,2013-11-23 09:02:00,
2013-11-23 10:07:00,40.5,37.2,30.03,NNE,22,15.0,15.0,88,0.00,,,0.00,0.0,WeatherDisplay:10.37,2013-11-23 09:07:00,
2013-11-23 10:12:00,40.5,36.9,30.03,NE,45,12.7,12.7,87,0.00,,,0.00,0.0,WeatherDisplay:10.37,2013-11-23 09:12:00,
2013-11-23 10:17:00,40.5,36.9,30.03,NE,45,15.0,15.0,87,0.00,,,0.00,0.0,WeatherDisplay:10.37,2013-11-23 09:17:00,
2013-11-23 10:22:00,40.5,36.9,30.03,NE,45,12.7,12.7,87,0.00,,,0.00,0.0,WeatherDisplay:10.37,2013-11-23 09:22:00,
2013-11-23 10:27:00,40.6,37.1,30.06,North,0,8.1,8.1,87,0.00,,,0.00,0.0,WeatherDisplay:10.37,2013-11-23 09:27:00,
2013-11-23 10:32:00,40.6,37.1,30.06,NE,45,11.5,11.5,87,0.00,,,0.00,0.0,WeatherDisplay:10.37,2013-11-23 09:32:00,
2013-11-23 10:37:00,40.6,37.1,30.06,NNW,338,13.0,13.0,87,0.00,,,0.00,0.0,WeatherDisplay:10.37,2013-11-23 09:37:00,
2013-11-23 10:42:00,40.6,37.1,30.06,East,90,13.8,13.8,87,0.00,,,0.00,0.0,WeatherDisplay:10.37,2013-11-23 09:42:00,
2013-11-23 10:47:00,40.8,37.3,30.06,NE,45,15.0,15.0,87,0.00,,,0.00,0.0,WeatherDisplay:10.37,2013-11-23 09:47:00,
2013-11-23 10:52:00,41.0,37.4,30.06,NNE,22,9.8,9.8,87,0.00,,,0.00,0.0,WeatherDisplay:10.37,2013-11-23 09:52:00,
2013-11-23 10:57:00,41.0,37.4,30.06,East,90,8.1,8.1,87,0.00,,,0.00,0.0,WeatherDisplay:10.37,2013-11-23 09:57:00,
2013-11-23 11:02:00,41.2,37.6,30.06,NNE,22,15.0,15.0,87,0.00,,,0.00,0.0,WeatherDisplay:10.37,2013-11-23 10:02:00,
2013-11-23 11:07:00,41.5,37.7,30.06,NNE,22,10.5,10.5,86,0.00,,,0.00,0.0,WeatherDisplay:10.37,2013-11-23 10:07:00,
2013-11-23 11:12:00,41.7,37.8,30.06,NE,45,10.2,10.2,86,0.00,,,0.00,0.0,WeatherDisplay:10.37,2013-11-23 10:12:00,
2013-11-23 11:17:00,41.9,37.7,30.06,NNE,22,15.0,15.0,85,0.00,,,0.00,0.0,WeatherDisplay:10.37,2013-11-23 10:17:00,
2013-11-23 11:22:00,42.1,37.9,30.06,North,0,13.8,13.8,85,0.00,,,0.00,0.0,WeatherDisplay:10.37,2013-11-23 10:22:00,
2013-11-23 11:27:00,42.3,37.8,30.06,NE,45,9.2,9.2,84,0.00,,,0.00,0.0,WeatherDisplay:10.37,2013-11-23 10:27:00,
2013-11-23 11:32:00,42.6,38.1,30.06,NE,45,13.8,13.8,84,0.00,,,0.00,0.0,WeatherDisplay:10.37,2013-11-23 10:32:00,
2013-11-23 11:37:00,42.8,38.0,30.06,ENE,68,11.5,11.5,83,0.00,,,0.00,0.0,WeatherDisplay:10.37,2013-11-23 10:37:00,
2013-11-23 11:42:00,43.2,38.3,30.09,North,0,8.7,8.7,83,0.00,,,0.00,0.0,WeatherDisplay:10.37,2013-11-23 10:42:00,
2013-11-23 11:47:00,43.3,38.2,30.09,East,90,8.1,8.1,82,0.00,,,0.00,0.0,WeatherDisplay:10.37,2013-11-23 10:47:00,
2013-11-23 11:53:00,43.5,38.4,30.09,NE,45,16.1,16.1,82,0.00,,,0.00,0.0,WeatherDisplay:10.37,2013-11-23 10:53:00,
2013-11-23 11:58:00,43.5,38.1,30.09,ENE,68,11.5,11.5,81,0.00,,,0.00,0.0,WeatherDisplay:10.37,2013-11-23 10:58:00,
2013-11-23 12:03:00,43.5,37.4,30.09,NE,45,6.9,6.9,79,0.00,,,0.00,0.0,WeatherDisplay:10.37,2013-11-23 11:03:00,
2013-11-23 12:08:00,43.7,37.6,30.09,NW,315,10.4,10.4,79,0.00,,,0.00,0.0,WeatherDisplay:10.37,2013-11-23 11:08:00,
2013-11-23 12:13:00,43.7,37.6,30.09,NW,315,10.4,10.4,79,0.00,,,0.00,0.0,WeatherDisplay:10.37,2013-11-23 11:13:00,
2013-11-23 12:18:00,43.7,37.6,30.09,ENE,68,8.1,8.1,79,0.00,,,0.00,0.0,WeatherDisplay:10.37,2013-11-23 11:18:00,
2013-11-23 12:23:00,43.5,37.1,30.09,North,0,9.2,9.2,78,0.00,,,0.00,0.0,WeatherDisplay:10.37,2013-11-23 11:23:00,
2013-11-23 12:28:00,43.3,36.9,30.09,NNE,22,12.7,12.7,78,0.00,,,0.00,0.0,WeatherDisplay:10.37,2013-11-23 11:28:00,
2013-11-23 12:33:00,43.3,36.9,30.09,SE,135,8.1,8.1,78,0.00,,,0.00,0.0,WeatherDisplay:10.37,2013-11-23 11:33:00,
2013-11-23 12:38:00,43.3,37.3,30.09,NE,45,4.6,4.6,79,0.00,,,0.00,0.0,WeatherDisplay:10.37,2013-11-23 11:38:00,
2013-11-23 12:43:00,43.5,37.4,30.06,NE,45,9.2,9.2,79,0.00,,,0.00,0.0,WeatherDisplay:10.37,2013-11-23 11:43:00,
2013-11-23 12:48:00,43.7,37.6,30.06,NE,45,6.0,6.0,79,0.00,,,0.00,0.0,WeatherDisplay:10.37,2013-11-23 11:48:00,
2013-11-23 12:53:00,43.7,37.6,30.06,WSW,248,4.6,4.6,79,0.00,,,0.00,0.0,WeatherDisplay:10.37,2013-11-23 11:53:00,
2013-11-23 12:58:00,43.7,37.6,30.09,East,90,4.6,4.6,79,0.00,,,0.00,0.0,WeatherDisplay:10.37,2013-11-23 11:58:00,
2013-11-23 13:03:00,43.7,37.0,30.09,ENE,68,9.2,9.2,77,0.00,,,0.00,0.0,WeatherDisplay:10.37,2013-11-23 12:03:00,
2013-11-23 13:08:00,43.7,37.0,30.09,NE,45,6.9,6.9,77,0.00,,,0.00,0.0,WeatherDisplay:10.37,2013-11-23 12:08:00,
2013-11-23 13:13:00,43.7,37.0,30.09,NNE,22,9.2,9.2,77,0.00,,,0.00,0.0,WeatherDisplay:10.37,2013-11-23 12:13:00,
2013-11-23 13:18:00,43.9,37.1,30.09,NE,45,6.9,6.9,77,0.00,,,0.00,0.0,WeatherDisplay:10.37,2013-11-23 12:18:00,
2013-11-23 13:23:00,43.9,36.5,30.09,NE,45,6.9,6.9,75,0.00,,,0.00,0.0,WeatherDisplay:10.37,2013-11-23 12:23:00,
2013-11-23 13:28:00,44.1,37.0,30.09,NE,45,5.8,5.8,76,0.00,,,0.00,0.0,WeatherDisplay:10.37,2013-11-23 12:28:00,
2013-11-23 13:33:00,44.1,36.6,30.09,North,0,5.8,5.8,75,0.00,,,0.00,0.0,WeatherDisplay:10.37,2013-11-23 12:33:00,
2013-11-23 13:38:00,44.1,37.0,30.09,East,90,4.6,4.6,76,0.00,,,0.00,0.0,WeatherDisplay:10.37,2013-11-23 12:38:00,
2013-11-23 13:43:00,44.2,36.5,30.06,NNW,338,12.7,12.7,74,0.00,,,0.00,0.0,WeatherDisplay:10.37,2013-11-23 12:43:00,
2013-11-23 13:48:00,44.8,36.3,30.06,WNW,292,11.5,11.5,72,0.00,,,0.00,0.0,WeatherDisplay:10.37,2013-11-23 12:48:00,
2013-11-23 13:53:00,45.0,36.8,30.06,NE,45,12.7,12.7,73,0.00,,,0.00,0.0,WeatherDisplay:10.37,2013-11-23 12:53:00,
2013-11-23 13:58:00,45.0,36.5,30.06,NNE,22,18.4,18.4,72,0.00,,,0.00,0.0,WeatherDisplay:10.37,2013-11-23 12:58:00,
2013-11-23 14:03:00,45.1,36.3,30.06,North,0,11.5,11.5,71,0.00,,,0.00,0.0,WeatherDisplay:10.37,2013-11-23 13:03:00,
2013-11-23 14:08:00,45.3,36.8,30.06,NE,45,8.1,8.1,72,0.00,,,0.00,0.0,WeatherDisplay:10.37,2013-11-23 13:08:00,
2013-11-23 14:13:00,45.1,36.6,30.06,NNE,22,9.8,9.8,72,0.00,,,0.00,0.0,WeatherDisplay:10.37,2013-11-23 13:13:00,
2013-11-23 14:18:00,45.0,36.1,30.06,NNW,338,8.1,8.1,71,0.00,,,0.00,0.0,WeatherDisplay:10.37,2013-11-23 13:18:00,
2013-11-23 14:23:00,45.0,36.5,30.09,ENE,68,9.2,9.2,72,0.00,,,0.00,0.0,WeatherDisplay:10.37,2013-11-23 13:23:00,
2013-11-23 14:28:00,45.0,36.8,30.09,NE,45,6.4,6.4,73,0.00,,,0.00,0.0,WeatherDisplay:10.37,2013-11-23 13:28:00,
2013-11-23 14:33:00,44.8,36.7,30.09,NNW,338,12.1,12.1,73,0.00,,,0.00,0.0,WeatherDisplay:10.37,2013-11-23 13:33:00,
2013-11-23 14:38:00,45.0,36.8,30.06,NNE,22,4.9,4.9,73,0.00,,,0.00,0.0,WeatherDisplay:10.37,2013-11-23 13:38:00,
2013-11-23 14:43:00,45.0,36.8,30.06,NNW,338,6.9,6.9,73,0.00,,,0.00,0.0,WeatherDisplay:10.37,2013-11-23 13:43:00,
2013-11-23 14:48:00,45.1,37.0,30.06,NNE,22,15.0,15.0,73,0.00,,,0.00,0.0,WeatherDisplay:10.37,2013-11-23 13:48:00,
2013-11-23 14:53:00,45.1,37.0,30.09,NE,45,10.2,10.2,73,0.00,,,0.00,0.0,WeatherDisplay:10.37,2013-11-23 13:53:00,
2013-11-23 14:58:00,45.0,36.8,30.09,NNE,22,10.9,10.9,73,0.00,,,0.00,0.0,WeatherDisplay:10.37,2013-11-23 13:58:00,
2013-11-23 15:03:00,45.0,37.2,30.09,ENE,68,13.8,13.8,74,0.00,,,0.00,0.0,WeatherDisplay:10.37,2013-11-23 14:03:00,
2013-11-23 15:08:00,45.0,37.2,30.09,NE,45,13.8,13.8,74,0.00,,,0.00,0.0,WeatherDisplay:10.37,2013-11-23 14:08:00,
2013-11-23 15:13:00,44.8,37.0,30.09,North,0,15.0,15.0,74,0.00,,,0.00,0.0,WeatherDisplay:10.37,2013-11-23 14:13:00,
2013-11-23 15:18:00,44.8,37.0,30.09,NNW,338,13.8,13.8,74,0.00,,,0.00,0.0,WeatherDisplay:10.37,2013-11-23 14:18:00,
2013-11-23 15:23:00,44.8,37.3,30.09,ENE,68,8.1,8.1,75,0.00,,,0.00,0.0,WeatherDisplay:10.37,2013-11-23 14:23:00,
2013-11-23 15:28:00,44.8,37.7,30.09,NW,315,10.4,10.4,76,0.00,,,0.00,0.0,WeatherDisplay:10.37,2013-11-23 14:28:00,
2013-11-23 15:33:00,44.6,37.5,30.09,NNE,22,9.2,9.2,76,0.00,,,0.00,0.0,WeatherDisplay:10.37,2013-11-23 14:33:00,
2013-11-23 15:38:00,44.6,37.5,30.09,NNW,338,3.5,3.5,76,0.00,,,0.00,0.0,WeatherDisplay:10.37,2013-11-23 14:38:00,
2013-11-23 15:43:00,44.4,37.7,30.09,North,0,11.5,11.5,77,0.00,,,0.00,0.0,WeatherDisplay:10.37,2013-11-23 14:43:00,
2013-11-23 15:49:00,44.2,37.8,30.09,NNE,22,8.1,8.1,78,0.00,,,0.00,0.0,WeatherDisplay:10.37,2013-11-23 14:49:00,
2013-11-23 15:54:00,44.2,38.1,30.09,North,0,10.4,10.4,79,0.00,,,0.00,0.0,WeatherDisplay:10.37,2013-11-23 14:54:00,
2013-11-23 15:59:00,44.2,38.1,30.09,NNE,22,6.9,6.9,79,0.04,RA,,0.04,0.0,WeatherDisplay:10.37,2013-11-23 14:59:00,
2013-11-23 16:04:00,44.2,38.5,30.09,ENE,68,5.8,5.8,80,0.04,RA,,0.04,0.0,WeatherDisplay:10.37,2013-11-23 15:04:00,
2013-11-23 16:09:00,44.1,38.3,30.09,NNW,338,12.8,12.8,80,0.04,,,0.04,0.0,WeatherDisplay:10.37,2013-11-23 15:09:00,
2013-11-23 16:14:00,44.1,38.3,30.09,NE,45,6.9,6.9,80,0.04,,,0.04,0.0,WeatherDisplay:10.37,2013-11-23 15:14:00,
2013-11-23 16:19:00,44.1,38.3,30.09,North,0,4.6,4.6,80,0.04,,,0.04,0.0,WeatherDisplay:10.37,2013-11-23 15:19:00,
2013-11-23 16:24:00,44.1,38.6,30.09,North,0,5.8,5.8,81,0.04,,,0.04,0.0,WeatherDisplay:10.37,2013-11-23 15:24:00,
2013-11-23 16:29:00,43.9,38.4,30.09,North,0,10.4,10.4,81,0.04,,,0.04,0.0,WeatherDisplay:10.37,2013-11-23 15:29:00,
2013-11-23 16:34:00,43.9,38.7,30.09,NE,45,5.8,5.8,82,0.04,,,0.04,0.0,WeatherDisplay:10.37,2013-11-23 15:34:00,
2013-11-23 16:39:00,43.9,38.7,30.09,NE,45,13.8,13.8,82,0.04,,,0.04,0.0,WeatherDisplay:10.37,2013-11-23 15:39:00,
2013-11-23 16:44:00,43.7,38.6,30.09,North,0,11.5,11.5,82,0.04,,,0.04,0.0,WeatherDisplay:10.37,2013-11-23 15:44:00,
2013-11-23 16:49:00,43.7,38.6,30.09,NNE,22,13.8,13.8,82,0.04,,,0.04,0.0,WeatherDisplay:10.37,2013-11-23 15:49:00,
2013-11-23 16:54:00,43.7,38.6,30.09,NE,45,8.1,8.1,82,0.04,,,0.04,0.0,WeatherDisplay:10.37,2013-11-23 15:54:00,
2013-11-23 16:59:00,43.7,38.6,30.09,NNW,338,10.7,10.7,82,0.00,,,0.04,0.0,WeatherDisplay:10.37,2013-11-23 15:59:00,
2013-11-23 17:04:00,43.7,38.6,30.09,NE,45,12.7,12.7,82,0.00,,,0.04,0.0,WeatherDisplay:10.37,2013-11-23 16:04:00,
2013-11-23 17:09:00,43.5,38.1,30.09,ENE,68,5.9,7.6,81,0.00,,,0.04,0.0,WeatherDisplay:10.37,2013-11-23 16:09:00,
2013-11-23 17:14:00,43.5,38.1,30.09,North,0,9.2,9.2,81,0.00,,,0.04,0.0,WeatherDisplay:10.37,2013-11-23 16:14:00,
2013-11-23 17:19:00,43.5,38.1,30.09,North,0,8.1,8.1,81,0.00,,,0.04,0.0,WeatherDisplay:10.37,2013-11-23 16:19:00,
2013-11-23 17:24:00,43.3,37.6,30.09,NNE,22,12.3,12.3,80,0.00,,,0.04,0.0,WeatherDisplay:10.37,2013-11-23 16:24:00,
2013-11-23 17:29:00,43.5,37.4,30.09,NW,315,9.2,9.2,79,0.00,,,0.04,0.0,WeatherDisplay:10.37,2013-11-23 16:29:00,
2013-11-23 17:34:00,43.5,37.4,30.09,NE,45,10.4,10.4,79,0.00,,,0.04,0.0,WeatherDisplay:10.37,2013-11-23 16:34:00,
2013-11-23 17:39:00,43.3,37.3,30.09,NNW,338,6.9,6.9,79,0.00,,,0.04,0.0,WeatherDisplay:10.37,2013-11-23 16:39:00,
2013-11-23 17:44:00,43.5,37.4,30.09,NNE,22,8.1,8.1,79,0.00,,,0.04,0.0,WeatherDisplay:10.37,2013-11-23 16:44:00,
2013-11-23 17:52:00,43.5,36.8,30.09,NNE,22,10.4,10.4,77,0.00,,,0.04,0.0,WeatherDisplay:10.37,2013-11-23 16:52:00,
2013-11-23 17:57:00,43.3,36.6,30.09,NNE,22,9.2,9.2,77,0.00,,,0.04,0.0,WeatherDisplay:10.37,2013-11-23 16:57:00,
2013-11-23 18:02:00,43.3,36.6,30.09,NNE,22,5.8,5.8,77,0.00,,,0.04,0.0,WeatherDisplay:10.37,2013-11-23 17:02:00,
2013-11-23 18:07:00,43.3,36.3,30.09,North,0,4.6,4.6,76,0.00,,,0.04,0.0,WeatherDisplay:10.37,2013-11-23 17:07:00,
2013-11-23 18:12:00,43.3,36.3,30.09,NNW,338,4.6,4.6,76,0.00,,,0.04,0.0,WeatherDisplay:10.37,2013-11-23 17:12:00,
2013-11-23 18:17:00,43.3,36.3,30.09,North,0,5.8,5.8,76,0.00,,,0.04,0.0,WeatherDisplay:10.37,2013-11-23 17:17:00,
2013-11-23 18:22:00,43.3,35.9,30.09,NNE,22,10.4,10.4,75,0.00,,,0.04,0.0,WeatherDisplay:10.37,2013-11-23 17:22:00,
2013-11-23 18:27:00,43.3,35.9,30.12,NE,45,6.9,6.9,75,0.00,,,0.04,0.0,WeatherDisplay:10.37,2013-11-23 17:27:00,
2013-11-23 18:32:00,43.3,35.9,30.12,NNE,22,6.9,6.9,75,0.00,,,0.04,0.0,WeatherDisplay:10.37,2013-11-23 17:32:00,
2013-11-23 18:37:00,43.3,35.9,30.12,North,0,10.4,10.4,75,0.00,,,0.04,0.0,WeatherDisplay:10.37,2013-11-23 17:37:00,
2013-11-23 18:42:00,43.3,35.9,30.12,NNE,22,10.4,10.4,75,0.00,,,0.04,0.0,WeatherDisplay:10.37,2013-11-23 17:42:00,
2013-11-23 18:47:00,43.3,35.9,30.12,NNW,338,4.6,4.9,75,0.00,,,0.04,0.0,WeatherDisplay:10.37,2013-11-23 17:47:00,
2013-11-23 18:52:00,43.3,35.9,30.12,East,90,8.1,8.1,75,0.00,,,0.04,0.0,WeatherDisplay:10.37,2013-11-23 17:52:00,
2013-11-23 18:57:00,43.3,35.9,30.12,NNE,22,10.2,10.2,75,0.00,,,0.04,0.0,WeatherDisplay:10.37,2013-11-23 17:57:00,
2013-11-23 19:02:00,43.5,36.1,30.12,North,0,9.2,9.2,75,0.00,,,0.04,0.0,WeatherDisplay:10.37,2013-11-23 18:02:00,
2013-11-23 19:07:00,43.3,35.9,30.12,NE,45,12.7,12.7,75,0.00,,,0.04,0.0,WeatherDisplay:10.37,2013-11-23 18:07:00,
2013-11-23 19:12:00,43.3,35.9,30.12,NNW,338,9.2,9.2,75,0.00,,,0.04,0.0,WeatherDisplay:10.37,2013-11-23 18:12:00,
2013-11-23 19:18:00,43.3,35.9,30.12,NNE,22,7.6,7.6,75,0.00,,,0.04,0.0,WeatherDisplay:10.37,2013-11-23 18:18:00,
2013-11-23 19:23:00,43.3,35.9,30.12,North,0,8.1,8.1,75,0.00,,,0.04,0.0,WeatherDisplay:10.37,2013-11-23 18:23:00,
2013-11-23 19:28:00,43.3,35.9,30.12,North,0,11.5,11.5,75,0.00,,,0.04,0.0,WeatherDisplay:10.37,2013-11-23 18:28:00,
2013-11-23 19:33:00,43.3,35.9,30.12,North,0,9.2,9.2,75,0.00,,,0.04,0.0,WeatherDisplay:10.37,2013-11-23 18:33:00,
2013-11-23 19:38:00,43.3,35.9,30.12,NNE,22,6.9,6.9,75,0.00,,,0.04,0.0,WeatherDisplay:10.37,2013-11-23 18:38:00,
2013-11-23 19:43:00,43.3,35.9,30.12,North,0,10.4,10.4,75,0.00,,,0.04,0.0,WeatherDisplay:10.37,2013-11-23 18:43:00,
2013-11-23 19:48:00,43.3,35.9,30.12,North,0,8.1,8.1,75,0.00,,,0.04,0.0,WeatherDisplay:10.37,2013-11-23 18:48:00,
2013-11-23 19:53:00,43.3,35.9,30.12,ENE,68,9.2,9.2,75,0.00,,,0.04,0.0,WeatherDisplay:10.37,2013-11-23 18:53:00,
2013-11-23 19:58:00,43.3,35.9,30.12,NE,45,10.0,10.0,75,0.00,,,0.04,0.0,WeatherDisplay:10.37,2013-11-23 18:58:00,
2013-11-23 20:03:00,43.3,35.9,30.12,NE,45,10.2,10.2,75,0.00,,,0.04,0.0,WeatherDisplay:10.37,2013-11-23 19:03:00,
2013-11-23 20:08:00,43.3,35.9,30.12,North,0,6.9,6.9,75,0.00,,,0.04,0.0,WeatherDisplay:10.37,2013-11-23 19:08:00,
2013-11-23 20:13:00,43.3,35.9,30.12,North,0,13.2,13.2,75,0.00,,,0.04,0.0,WeatherDisplay:10.37,2013-11-23 19:13:00,
2013-11-23 20:18:00,43.3,35.9,30.12,NE,45,13.8,13.8,75,0.00,,,0.04,0.0,WeatherDisplay:10.37,2013-11-23 19:18:00,
2013-11-23 20:23:00,43.3,35.9,30.12,NNE,22,9.2,9.2,75,0.00,,,0.04,0.0,WeatherDisplay:10.37,2013-11-23 19:23:00,
2013-11-23 20:28:00,43.3,35.9,30.12,NNE,22,8.1,8.1,75,0.00,,,0.04,0.0,WeatherDisplay:10.37,2013-11-23 19:28:00,
2013-11-23 20:33:00,43.2,35.8,30.12,NE,45,8.1,8.1,75,0.00,,,0.04,0.0,WeatherDisplay:10.37,2013-11-23 19:33:00,
2013-11-23 20:38:00,43.2,35.8,30.12,NNE,22,8.1,8.1,75,0.00,,,0.04,0.0,WeatherDisplay:10.37,2013-11-23 19:38:00,
2013-11-23 20:43:00,43.2,35.8,30.12,North,0,8.1,8.1,75,0.00,,,0.04,0.0,WeatherDisplay:10.37,2013-11-23 19:43:00,
2013-11-23 20:48:00,43.2,35.8,30.12,NNW,338,10.2,10.2,75,0.00,,,0.04,0.0,WeatherDisplay:10.37,2013-11-23 19:48:00,
2013-11-23 20:53:00,43.2,35.8,30.12,NNE,22,10.2,10.2,75,0.00,,,0.04,0.0,WeatherDisplay:10.37,2013-11-23 19:53:00,
2013-11-23 20:58:00,43.2,35.8,30.12,NNE,22,10.4,10.4,75,0.00,,,0.04,0.0,WeatherDisplay:10.37,2013-11-23 19:58:00,
2013-11-23 21:03:00,43.2,35.8,30.12,NE,45,7.1,7.1,75,0.00,,,0.04,0.0,WeatherDisplay:10.37,2013-11-23 20:03:00,
2013-11-23 21:08:00,43.2,35.8,30.15,North,0,8.1,8.1,75,0.00,,,0.04,0.0,WeatherDisplay:10.37,2013-11-23 20:08:00,
2013-11-23 21:13:00,43.2,35.8,30.15,North,0,5.8,5.8,75,0.00,,,0.04,0.0,WeatherDisplay:10.37,2013-11-23 20:13:00,
2013-11-23 21:18:00,43.2,35.8,30.15,North,0,9.2,9.2,75,0.00,,,0.04,0.0,WeatherDisplay:10.37,2013-11-23 20:18:00,
2013-11-23 21:23:00,43.2,35.8,30.15,NE,45,6.9,6.9,75,0.00,,,0.04,0.0,WeatherDisplay:10.37,2013-11-23 20:23:00,
2013-11-23 21:28:00,43.2,35.8,30.15,NNW,338,7.6,7.6,75,0.00,,,0.04,0.0,WeatherDisplay:10.37,2013-11-23 20:28:00,
2013-11-23 21:33:00,43.0,35.9,30.15,NE,45,4.6,4.6,76,0.00,,,0.04,0.0,WeatherDisplay:10.37,2013-11-23 20:33:00,
2013-11-23 21:38:00,43.0,35.9,30.15,NNE,22,6.9,6.9,76,0.00,,,0.04,0.0,WeatherDisplay:10.37,2013-11-23 20:38:00,
2013-11-23 21:43:00,43.0,35.9,30.15,NNE,22,6.9,6.9,76,0.00,,,0.04,0.0,WeatherDisplay:10.37,2013-11-23 20:43:00,
2013-11-23 21:48:00,43.0,35.9,30.15,East,90,8.1,8.1,76,0.00,,,0.04,0.0,WeatherDisplay:10.37,2013-11-23 20:48:00,
2013-11-23 21:53:00,43.0,35.9,30.15,NE,45,8.1,8.1,76,0.00,,,0.04,0.0,WeatherDisplay:10.37,2013-11-23 20:53:00,
2013-11-23 21:58:00,43.0,35.9,30.15,NE,45,8.1,8.1,76,0.00,,,0.04,0.0,WeatherDisplay:10.37,2013-11-23 20:58:00,
2013-11-23 22:03:00,43.0,35.9,30.15,NE,45,5.8,5.8,76,0.00,,,0.04,0.0,WeatherDisplay:10.37,2013-11-23 21:03:00,
2013-11-23 22:09:00,43.0,35.9,30.15,NNE,22,6.2,6.2,76,0.00,,,0.04,0.0,WeatherDisplay:10.37,2013-11-23 21:09:00,
2013-11-23 22:14:00,43.0,35.9,30.15,NNE,22,6.9,6.9,76,0.00,,,0.04,0.0,WeatherDisplay:10.37,2013-11-23 21:14:00,
2013-11-23 22:19:00,43.0,35.9,30.15,NE,45,5.8,5.8,76,0.00,,,0.04,0.0,WeatherDisplay:10.37,2013-11-23 21:19:00,
2013-11-23 22:24:00,42.8,35.8,30.15,North,0,4.6,4.6,76,0.00,,,0.04,0.0,WeatherDisplay:10.37,2013-11-23 21:24:00,
2013-11-23 22:29:00,42.8,35.8,30.15,NW,315,6.9,6.9,76,0.00,,,0.04,0.0,WeatherDisplay:10.37,2013-11-23 21:29:00,
2013-11-23 22:34:00,42.8,35.8,30.15,NNW,338,8.1,8.1,76,0.00,,,0.04,0.0,WeatherDisplay:10.37,2013-11-23 21:34:00,
2013-11-23 22:39:00,42.8,35.8,30.15,NW,315,9.2,9.2,76,0.00,,,0.04,0.0,WeatherDisplay:10.37,2013-11-23 21:39:00,
2013-11-23 22:44:00,42.6,35.6,30.15,WNW,292,5.8,5.8,76,0.00,,,0.04,0.0,WeatherDisplay:10.37,2013-11-23 21:44:00,
2013-11-23 22:49:00,42.6,35.6,30.15,North,0,4.6,4.6,76,0.00,,,0.04,0.0,WeatherDisplay:10.37,2013-11-23 21:49:00,
2013-11-23 22:54:00,42.4,35.4,30.15,ENE,68,5.4,5.4,76,0.00,,,0.04,0.0,WeatherDisplay:10.37,2013-11-23 21:54:00,
2013-11-23 22:59:00,42.3,35.6,30.15,East,90,5.8,5.8,77,0.00,,,0.04,0.0,WeatherDisplay:10.37,2013-11-23 21:59:00,
2013-11-23 23:04:00,42.3,35.6,30.15,ENE,68,3.8,3.8,77,0.00,,,0.04,0.0,WeatherDisplay:10.37,2013-11-23 22:04:00,
2013-11-23 23:09:00,42.1,35.4,30.15,NNE,22,2.9,3.3,77,0.00,,,0.04,0.0,WeatherDisplay:10.37,2013-11-23 22:09:00,
2013-11-23 23:14:00,42.1,35.4,30.15,NW,315,2.3,2.3,77,0.00,,,0.04,0.0,WeatherDisplay:10.37,2013-11-23 22:14:00,
2013-11-23 23:19:00,42.1,35.4,30.15,WNW,292,3.5,3.5,77,0.00,,,0.04,0.0,WeatherDisplay:10.37,2013-11-23 22:19:00,
2013-11-23 23:24:00,42.1,35.7,30.15,NW,315,6.9,6.9,78,0.00,,,0.04,0.0,WeatherDisplay:10.37,2013-11-23 22:24:00,
2013-11-23 23:29:00,42.1,35.7,30.15,ENE,68,5.8,5.8,78,0.00,,,0.04,0.0,WeatherDisplay:10.37,2013-11-23 22:29:00,
2013-11-23 23:34:00,42.3,35.9,30.15,WNW,292,5.8,5.8,78,0.00,,,0.04,0.0,WeatherDisplay:10.37,2013-11-23 22:34:00,
2013-11-23 23:39:00,42.3,35.9,30.15,North,0,5.8,5.8,78,0.00,,,0.04,0.0,WeatherDisplay:10.37,2013-11-23 22:39:00,
2013-11-23 23:44:00,42.3,35.9,30.15,NE,45,5.8,5.8,78,0.00,,,0.04,0.0,WeatherDisplay:10.37,2013-11-23 22:44:00,
2013-11-23 23:49:00,42.4,36.1,30.15,NNE,22,6.9,6.9,78,0.00,,,0.04,0.0,WeatherDisplay:10.37,2013-11-23 22:49:00,
2013-11-23 23:54:00,42.4,36.1,30.18,NW,315,5.8,5.8,78,0.00,,,0.04,0.0,WeatherDisplay:10.37,2013-11-23 22:54:00,
2013-11-23 23:59:00,42.4,36.1,30.18,NW,315,4.6,4.6,78,0.00,,,0.04,0.0,WeatherDisplay:10.37,2013-11-23 22:59:00,